CADRE
1 41475U 98067HV 17003.74787607 .12518598 12537-4 55989-3 0 9998
2 41475 51.6110 110.0165 0004040 312.3134 47.7551 16.43344525 36494
NODES 1
1 41477U 98067HX 17215.09170823 .00089501 00000-0 30115-3 0 9995
2 41477 051.6247 118.1475 0000857 179.1380 180.9627 15.89301817069513
NODES 2
1 41478U 98067HY 17215.15471626 .00082950 00000-0 29292-3 0 9993
2 41478 051.6286 118.6212 0000926 166.8825 193.2204 15.88364085069518
LO-87
1 41557U 16033B 17215.19206599 .00001007 00000-0 40549-4 0 9996
2 41557 097.4616 294.7089 0013798 195.2098 164.8728 15.27165952065604
NuSat2
1 41558U 16033C 17215.42623478 .00001195 00000-0 47841-4 0 9992
2 41558 097.4644 295.0033 0013254 192.9703 167.1197 15.27004120065631
Lapan A3
1 41603U 16040E 17215.59697473 -.00000023 00000-0 21845-5 0 9992
2 41603 097.4571 277.0064 0011993 270.3527 195.7417 15.19373103061851
Swayam
1 41607U 16040J 17215.43635293 .00001266 00000-0 60289-4 0 9994
2 41607 097.4574 277.2449 0012627 271.3874 088.5915 15.20923275061785
Pratham
1 41783U 16059A 17215.42582012 .00000047 00000-0 18612-4 0 9997
2 41783 098.1636 276.3020 0033901 015.1251 345.0956 14.62847591045502
AlSat 1N
1 41789U 16059G 17215.44360686 .00000031 00000-0 15218-4 0 9998
2 41789 098.1642 276.9117 0028703 009.5999 350.5752 14.64060946045528
ScatSat
1 41790U 16059H 17215.59808499 .00000011 00000-0 13684-4 0 9998
2 41790 098.0613 263.6314 0011283 008.5630 351.5755 14.50114930045134
TY-1
1 41844U 16066D 17215.49311999 .00000846 00000-0 39797-4 0 9998
2 41844 097.4058 221.9348 0017988 074.0213 082.7710 15.22137238040536
CAS-2T
1 41845U 16066E 17215.37159954 .00000052 00000-0 17609-4 0 9994
2 41845 098.7762 232.1303 0367901 108.1631 255.9971 14.37768980038274
Pegasus-1
1 41846U 16066F 17215.58883398 .00000294 00000-0 54406-4 0 9998
2 41846 098.7793 232.1051 0370477 108.9591 255.2123 14.37050352038284
STARS-C
1 41895U 98067KR 17215.34491094 .00018236 00000-0 19734-3 0 9994
2 41895 051.6368 155.5458 0005185 119.2249 240.9264 15.63633709035365
Tancredo 1
1 41931U 98067KT 17215.34073538 .00046052 00000-0 34679-3 0 9996
2 41931 051.6346 150.2223 0007020 091.4100 268.7702 15.72015744031006
TO-89
1 41932U 98067KU 17215.10743712 .00010118 00000-0 12756-3 0 9995
2 41932 051.6396 159.2410 0006364 084.4393 275.7326 15.60258177030864
AOBA-V3LOX3
1 41935U 98067KX 17215.40694683 .00009365 00000-0 11664-3 0 9992
2 41935 051.6394 157.4860 0005830 088.3945 271.7716 15.60691775031019
OSNSAT
1 41939U 98067KZ 17215.20386548 .00022528 00000-0 22133-3 0 9991
2 41939 051.6366 154.5956 0007261 088.6390 271.5438 15.65915970030292
EO-88
1 42017U 17008BX 17215.54136950 .00001236 00000-0 55387-4 0 9993
2 42017 097.4919 276.9013 0008027 063.3098 296.8960 15.23119209025694
HAVELSAT
1 42700U 98067LH 17215.39988441 .00009348 00000-0 13476-3 0 9993
2 42700 051.6386 161.9229 0007039 130.9833 229.1768 15.56754886012294
SOMP2
1 42701U 98067LJ 17215.40433710 .00007914 00000-0 11593-3 0 9995
2 42701 051.6391 161.9545 0006983 132.1887 227.9699 15.56572282012288
Columbia
1 42702U 98067LK 17215.42639876 .00017440 00000-0 23138-3 0 9992
2 42702 051.6387 161.3496 0007543 123.8136 236.3576 15.58316383012222
PHOENIX
1 42706U 98067LP 17215.08121371 .00007720 00000-0 11295-3 0 9995
2 42706 051.6391 163.5486 0002638 099.9918 260.1371 15.56655516012157
X-CubeSat
1 42707U 98067LQ 17215.21066372 .00008448 00000-0 12297-3 0 9991
2 42707 051.6387 162.9107 0002711 099.8849 260.2448 15.56649177012163
qbee
1 42708U 98067LR 17215.21248523 .00008324 00000-0 12145-3 0 9997
2 42708 051.6387 162.9233 0002798 098.8520 261.2789 15.56607596012128
ZA-AeroSat
1 42713U 98067LU 17215.41825613 .00006647 00000-0 99775-4 0 9997
2 42713 051.6391 162.0471 0003518 075.1429 284.9952 15.56218465011868
LINK
1 42714U 98067LV 17215.22137851 .00010418 00000-0 15058-3 0 9999
2 42714 051.6385 162.9804 0003833 078.9632 281.1791 15.56547539011944
UPSat
1 42716U 98067LX 17215.40296697 .00009770 00000-0 14035-3 0 9998
2 42716 051.6385 161.9445 0005380 130.2958 229.8504 15.56796082011993
SpaceCube
1 42717U 98067LY 17215.41123469 .00008582 00000-0 12554-3 0 9990
2 42717 051.6390 161.9997 0005332 130.8087 229.3367 15.56485770011236
Hoopoe
1 42718U 98067LZ 17215.47171613 .00009766 00000-0 14104-3 0 9999
2 42718 051.6390 161.6545 0005398 129.6519 230.4950 15.56652140011240
Challenger
1 42721U 98067MA 17215.22271985 .00011453 00000-0 16339-3 0 9997
2 42721 051.6387 162.9879 0008838 114.9066 245.2845 15.56763329010901
NJUST-1
1 42722U 98067MB 17215.43406950 .00006822 00000-0 10313-3 0 9993
2 42722 051.6389 162.1501 0008492 118.2399 241.9451 15.55961035010932
UNSW-EC0
1 42723U 98067MC 17215.42653630 .00008294 00000-0 12224-3 0 9990
2 42723 051.6390 162.1007 0008549 116.5258 243.6611 15.56318247010911
DUTHsat
1 42724U 98067MD 17215.48492244 .00010929 00000-0 15705-3 0 9994
2 42724 051.6387 161.7402 0007779 117.8625 242.3156 15.56628894010864
LO-90
1 42725U 98067ME 17215.24378664 .00008266 00000-0 12350-3 0 9992
2 42725 051.6390 163.1304 0007517 119.1328 241.0416 15.55953720010808
nSIGHT1
1 42726U 98067MF 17215.25452035 .00004924 00000-0 77848-4 0 9990
2 42726 051.6394 163.2024 0007377 121.1877 238.9838 15.55443928010817
QBITO
1 42728U 98067MH 17215.23564392 .00007802 00000-0 11586-3 0 9994
2 42728 051.6393 163.0780 0004702 120.3235 239.8222 15.56228659010611
Aalto-2
1 42729U 98067MJ 17215.42815423 .00008221 00000-0 12167-3 0 9992
2 42729 051.6389 162.1127 0004692 121.0141 239.1312 15.56233917010654
SUSat
1 42730U 98067MK 17215.42995509 .00008016 00000-0 11914-3 0 9999
2 42730 051.6388 162.1234 0004765 120.0688 240.0776 15.56159462010646
i-INSPIRE II
1 42731U 98067ML 17215.23268325 .00010024 00000-0 14604-3 0 9999
2 42731 051.6381 163.0512 0008760 074.1725 286.0232 15.56357577010665
PolyITAN-2-SAU
1 42732U 98067MM 17215.42681929 .00008745 00000-0 12871-3 0 9991
2 42732 051.6382 162.0978 0008702 074.5617 285.6336 15.56272286010698
SNUSAT-1
1 42733U 98067MN 17215.23814461 .00008210 00000-0 12187-3 0 9997
2 42733 051.6383 163.0880 0008558 075.0090 285.1849 15.56138663010664
ExAlta-1
1 42734U 98067MP 17215.48936872 .00009025 00000-0 13201-3 0 9999
2 42734 051.6383 161.7667 0010366 096.2247 263.9925 15.56380477010652
Aoxiang-1
1 42735U 98067MQ 17215.43282961 .00007173 00000-0 10785-3 0 9994
2 42735 051.6388 162.1413 0009221 115.5603 244.6342 15.56009426012069
BeEagleSat
1 42736U 98067MR 17215.36840031 .00007279 00000-0 10916-3 0 9998
2 42736 051.6388 162.4610 0009146 114.2147 245.9801 15.56056526010747
Atlantis
1 42737U 98067MS 17215.27382042 .00017356 00000-0 23765-3 0 9995
2 42737 051.6379 162.5777 0009517 110.0382 250.1636 15.57454799010626
CAS-4B
1 42759U 17034B 17215.50968061 .00000033 00000-0 15698-4 0 9992
2 42759 043.0201 026.8292 0008881 286.8709 171.0915 15.08931531007459
CAS-4A
1 42761U 17034D 17215.50710538 .00000052 00000-0 16845-4 0 9995
2 42761 043.0210 026.8156 0009286 286.1051 170.9377 15.09005620007445
UCLSat
1 42765U 17036A 17215.33102462 .00001215 00000-0 58234-4 0 9993
2 42765 097.4466 274.6177 0013822 107.9346 252.3398 15.20754873006978
Object B
1 42766U 17036B 17215.56239281 .00000874 00000-0 44252-4 0 9994
2 42766 097.4470 274.7694 0018075 094.2729 266.0572 15.19496375006285
Object C
1 42767U 17036C 17215.19309291 .00000470 00000-0 25500-4 0 9990
2 42767 097.4460 274.3410 0010563 098.0220 262.2213 15.19256610006229
